sat.trackr.live / text

‹ back to catalog

STARLINK-37356

NORAD 68704 · 2026-081F

PAYLOAD ACTIVE UNKNOWN

§ Identity

Operator
Country
US
Launch date
2026-04-14
Launch site
AFETR
Launch vehicle
Mass (kg)
RCS (m²)

Purposes: comms

External: N2YO · Heavens-Above · Gunter

§ Orbital elements

Epoch: 2026-05-25T04:00:03.998880Z

Period
93.47 min
Inclination
53.1597°
Eccentricity
0.0001079
Mean motion
15.40545689 rev/d
Perigee alt
443.8 km
Apogee alt
445.2 km
Semi-major
6,822.6 km
B*
-4.8705e-2
RAAN
39.2297°
Arg perigee
87.1105°
Mean anomaly
24.4260°
Rev number
580

§ Raw data

STARLINK-373561 68704U 26081F   26145.16671295 -.01809902  00000+0 -48705-1 0  99922 68704  53.1597  39.2297 0001079  87.1105  24.4260 15.40545689  5806

JSON: /api/v1/satellites/68704 · /tle

For live sub-satellite position, see the globe view (requires WebGL).

§ Visibility from observer

Set your observer location to see the next 7 days of passes ≥ 10°. The values pass through the URL so the page stays shareable.

No JS? Fill the form by hand. The geolocation button needs JavaScript.